Regional Weather Roundup
Issued by NWS State College, PA

Home | Current Version | Previous Version | Graphics & Text | Print | Product List | Glossary On
Versions: 1 2 3 4 5 6 7 8 9 10 11 12 13 14 15 16 17 18 19 20 21 22 23 24 25 26 27 28 29 30 31 32 33 34 35 36 37 38 39 40 41 42 43 44 45 46 47 48 49 50
376
ASUS41 KCTP 301810
RWRCTP

REGIONAL WEATHER ROUNDUP
NATIONAL WEATHER SERVICE STATE COLLEGE PA
200 PM EDT THU MAR 30 2017

Note: "fair" indicates few or no clouds below 12,000 feet with no
significant weather and/or obstructions to visibility.

* = STATION THAT DOES NOT REPORT PRECIPITATION /E.G. RAIN...SNOW...ETC/
    THUNDER OR FOG.

PAZ002>004-007>009-013>016-020>023-029>032-301900-
WESTERN PENNSYLVANIA

CITY           SKY/WX    TMP DP  RH WIND       PRES   REMARKS
ERIE           CLOUDY    40  35  83 NE12      29.99F
MEADVILLE      LGT RAIN  37  32  82 E13G20    29.94F
FRANKLIN*      CLOUDY    37  30  75 E14G23    29.96F
NEW CASTLE     CLOUDY    46  38  73 E14       29.91F
BEAVER COUNTY  LGT RAIN  46  39  76 E12G18    29.90F
BUTLER*        CLOUDY    48  37  66 E14       29.95F
PITTSBURGH INT CLOUDY    49  41  74 NE8       29.92S
PITTSBURGH     CLOUDY    51  38  60 E15       29.90F
INDIANA*       PTSUNNY   48  34  57 SE14G21   30.00F
LATROBE        LGT RAIN  48  37  66 SE12G21   29.96F
WASHINGTON CO* CLOUDY    50  43  76 E7        29.89F
$$

PAZ004>006-010>012-017>019-024>028-033>037-041-042-045-046-049>053-301900-
CENTRAL PENNSYLVANIA

CITY           SKY/WX    TMP DP  RH WIND       PRES   REMARKS
BRADFORD       LGT SNOW  32  30  92 E12       30.02F FOG
DUBOIS         CLOUDY    38  28  67 E9        30.03F
CLEARFIELD     LGT RAIN  40  30  67 E9        30.07F
JOHNSTOWN      RAIN      41  34  76 SE14G24   29.97F
ALTOONA        LGT RAIN  47  32  56 SE14      30.08F
STATE COLLEGE  CLOUDY    43  27  52 E12       30.10F
WILLIAMSPORT   CLOUDY    40  29  64 NE6       30.19F
SELINSGROVE    CLOUDY    47  28  47 NE6       30.18F
FT INDIANTOWN  CLOUDY    46  26  47 CALM      30.18F
CAPITAL CITY   CLOUDY    49  26  41 S7        30.18F
HARRISBURG     CLOUDY    48  30  49 S6        30.18F
YORK           CLOUDY    45  29  53 SE6       30.18F
$$

PAZ038>040-043-044-047-048-054-055-060>062-067>071-301900-
EASTERN PENNSYLVANIA

CITY           SKY/WX    TMP DP  RH WIND       PRES   REMARKS
SCRANTON       CLOUDY    46  25  43 SW7       30.17S
MOUNT POCONO   CLOUDY    43  25  49 SE6       30.14S
ALLENTOWN      CLOUDY    47  23  38 VRB3      30.20S
QUAKERTOWN*    CLOUDY    45  25  45 W3        30.21S
READING        CLOUDY    48  27  44 SE5       30.17F
LANCASTER      CLOUDY    47  29  49 S8        30.18F
COATESVILLE    MOCLDY    46  25  42 SE7       30.19F
POTTSTOWN      CLOUDY    45  24  43 VRB3      30.21F
BLUE BELL      CLOUDY    45  25  45 CALM      30.20F
DOYLESTOWN     CLOUDY    44  24  45 S3        30.19F
WILLOW GROVE   NOT AVBL
NORTH PHILA    CLOUDY    50  24  36 VRB3      30.23F
PHILADELPHIA   CLOUDY    50  24  36 SW5       30.22F
$$




USA.gov is the U.S. government's official web portal to all federal, state and local government web resources and services.